BOX37GT LEMD-GMMN

Flight info

Callsign BOX37GT
Flight time 1h 24m
Altitude 35000
Route VTB DCT INPAN DCT CRISA DCT HIJ DCT SVL DCT VJF N10 LINTO UN10 BARIS UB11 TUSOR
Aircraft B77L/H-SDE1E2E3FGHIJ2J3J4J5M1RWXY/LB1D1

Departure

Time 2026-05-07 19:48
Airport Adolfo Suárez Madrid–Barajas Airport (LEMD)

Arrival

Time 2026-05-07 21:13
Airport Mohammed V International Airport (GMMN)
Time Latitude Longitude Altitude Speed Heading
2026-05-07 19:04 40.46031 -3.56126 1972 ft 0 kts 359°
2026-05-07 19:30 40.46038 -3.56126 1971 ft 3 kts 359°
2026-05-07 19:30 40.46077 -3.56128 1970 ft 6 kts 346°
2026-05-07 19:31 40.46103 -3.56160 1971 ft 3 kts 297°
2026-05-07 19:31 40.46109 -3.56178 1971 ft 0 kts 289°
2026-05-07 19:31 40.46109 -3.56179 1971 ft 0 kts 287°
2026-05-07 19:32 40.46112 -3.56212 1973 ft 6 kts 274°
2026-05-07 19:32 40.46111 -3.56290 1975 ft 10 kts 267°
2026-05-07 19:32 40.46112 -3.56408 1979 ft 12 kts 270°
2026-05-07 19:32 40.46108 -3.56496 1982 ft 7 kts 246°
2026-05-07 19:33 40.46080 -3.56524 1984 ft 4 kts 190°
2026-05-07 19:33 40.46053 -3.56528 1984 ft 4 kts 184°
2026-05-07 19:33 40.46006 -3.56532 1983 ft 9 kts 183°
2026-05-07 19:33 40.45930 -3.56538 1982 ft 11 kts 184°
2026-05-07 19:34 40.45850 -3.56546 1981 ft 11 kts 192°
2026-05-07 19:34 40.45807 -3.56618 1981 ft 9 kts 264°
2026-05-07 19:34 40.45808 -3.56692 1983 ft 7 kts 275°
2026-05-07 19:34 40.45826 -3.56743 1984 ft 5 kts 319°
2026-05-07 19:35 40.45858 -3.56757 1985 ft 6 kts 354°
2026-05-07 19:35 40.45916 -3.56757 1988 ft 10 kts 359°
2026-05-07 19:35 40.46003 -3.56758 1989 ft 14 kts 359°
2026-05-07 19:35 40.46108 -3.56760 1992 ft 13 kts 359°
2026-05-07 19:36 40.46176 -3.56761 1993 ft 5 kts
2026-05-07 19:36 40.46207 -3.56742 1993 ft 5 kts 52°
2026-05-07 19:36 40.46218 -3.56677 1991 ft 9 kts 86°
2026-05-07 19:36 40.46259 -3.56611 1989 ft 10 kts 12°
2026-05-07 19:37 40.46347 -3.56602 1990 ft 14 kts
2026-05-07 19:37 40.46464 -3.56593 1991 ft 20 kts
2026-05-07 19:37 40.46670 -3.56574 1990 ft 14 kts
2026-05-07 19:37 40.46779 -3.56565 1990 ft 18 kts
2026-05-07 19:38 40.46936 -3.56554 1988 ft 25 kts
2026-05-07 19:38 40.47102 -3.56597 1988 ft 23 kts 334°
2026-05-07 19:38 40.47204 -3.56690 1990 ft 6 kts 322°
2026-05-07 19:38 40.47236 -3.56723 1990 ft 6 kts 321°
2026-05-07 19:39 40.47282 -3.56770 1991 ft 10 kts 322°
2026-05-07 19:39 40.47359 -3.56847 1993 ft 17 kts 322°
2026-05-07 19:39 40.47469 -3.56958 1997 ft 22 kts 320°
2026-05-07 19:39 40.47597 -3.57088 2002 ft 21 kts 322°
2026-05-07 19:40 40.47720 -3.57213 2006 ft 22 kts 321°
2026-05-07 19:40 40.47850 -3.57346 2009 ft 25 kts 322°
2026-05-07 19:40 40.47972 -3.57469 2011 ft 17 kts 322°
2026-05-07 19:40 40.48088 -3.57589 2014 ft 25 kts 321°
2026-05-07 19:41 40.48219 -3.57721 2015 ft 22 kts 322°
2026-05-07 19:41 40.48336 -3.57839 2015 ft 20 kts 324°
2026-05-07 19:41 40.48452 -3.57938 2015 ft 20 kts 328°
2026-05-07 19:41 40.48569 -3.58035 2016 ft 19 kts 334°
2026-05-07 19:42 40.48701 -3.58056 2016 ft 18 kts 359°
2026-05-07 19:42 40.48823 -3.58053 2016 ft 16 kts 15°
2026-05-07 19:42 40.48860 -3.57928 2012 ft 16 kts 87°
2026-05-07 19:42 40.48862 -3.57772 2007 ft 13 kts 77°
2026-05-07 19:43 40.48943 -3.57728 2006 ft 15 kts 359°
2026-05-07 19:43 40.49067 -3.57729 2004 ft 17 kts 359°
2026-05-07 19:43 40.49167 -3.57695 2003 ft 14 kts 64°
2026-05-07 19:43 40.49199 -3.57562 2000 ft 15 kts 67°
2026-05-07 19:44 40.49263 -3.57467 1996 ft 13 kts 12°
2026-05-07 19:44 40.49336 -3.57462 1995 ft 0 kts 358°
2026-05-07 19:45 40.49347 -3.57463 1995 ft 6 kts 358°
2026-05-07 19:46 40.49352 -3.57463 1995 ft 0 kts 358°
2026-05-07 19:47 40.49426 -3.57465 1995 ft 36 kts
2026-05-07 19:47 40.49910 -3.57468 1994 ft 100 kts 359°
2026-05-07 19:48 40.50810 -3.57472 1995 ft 156 kts 359°
2026-05-07 19:48 40.52027 -3.57480 2245 ft 180 kts 359°
2026-05-07 19:48 40.53273 -3.57525 2756 ft 188 kts 358°
2026-05-07 19:48 40.54597 -3.57542 3291 ft 197 kts
2026-05-07 19:49 40.56015 -3.57768 3577 ft 216 kts 338°
2026-05-07 19:49 40.57293 -3.58864 3877 ft 234 kts 311°
2026-05-07 19:49 40.58187 -3.60713 4394 ft 243 kts 301°
2026-05-07 19:49 40.59250 -3.62450 5118 ft 245 kts 315°
2026-05-07 19:50 40.60500 -3.63961 5757 ft 249 kts 319°
2026-05-07 19:50 40.61834 -3.65447 6438 ft 252 kts 319°
2026-05-07 19:50 40.63169 -3.66918 7145 ft 252 kts 319°
2026-05-07 19:50 40.64373 -3.68564 7741 ft 254 kts 299°
2026-05-07 19:51 40.64919 -3.70771 8290 ft 255 kts 270°
2026-05-07 19:51 40.64606 -3.73031 8881 ft 256 kts 242°
2026-05-07 19:51 40.63657 -3.74959 9675 ft 256 kts 227°
2026-05-07 19:51 40.62265 -3.76359 10445 ft 256 kts 203°
2026-05-07 19:52 40.60521 -3.76852 11048 ft 261 kts 177°
2026-05-07 19:52 40.58745 -3.76273 11515 ft 275 kts 152°
2026-05-07 19:52 40.57252 -3.74562 11843 ft 295 kts 126°
2026-05-07 19:52 40.55989 -3.72360 12228 ft 312 kts 138°
2026-05-07 19:53 40.54108 -3.70876 12571 ft 327 kts 165°
2026-05-07 19:53 40.51802 -3.70709 12933 ft 343 kts 192°
2026-05-07 19:53 40.49472 -3.71730 13373 ft 359 kts 202°
2026-05-07 19:53 40.47128 -3.73009 13943 ft 373 kts 203°
2026-05-07 19:54 40.44707 -3.74346 14518 ft 387 kts 203°
2026-05-07 19:54 40.42203 -3.75728 15360 ft 394 kts 203°
2026-05-07 19:54 40.39667 -3.77126 16304 ft 398 kts 203°
2026-05-07 19:54 40.37106 -3.78536 17152 ft 404 kts 204°
2026-05-07 19:55 40.34512 -3.79964 17986 ft 409 kts 204°
2026-05-07 19:55 40.31885 -3.81409 18791 ft 415 kts 204°
2026-05-07 19:55 40.29204 -3.82882 19486 ft 423 kts 204°
2026-05-07 19:55 40.26473 -3.84382 20209 ft 429 kts 205°
2026-05-07 19:56 40.23719 -3.85893 20903 ft 436 kts 205°
2026-05-07 19:56 40.20887 -3.87446 21557 ft 443 kts 205°
2026-05-07 19:56 40.18020 -3.89017 22257 ft 448 kts 206°
2026-05-07 19:56 40.15151 -3.90587 22955 ft 453 kts 206°
2026-05-07 19:57 40.12223 -3.92188 23611 ft 459 kts 206°
2026-05-07 19:57 40.09291 -3.93789 24363 ft 462 kts 207°
2026-05-07 19:57 40.06343 -3.95397 25139 ft 463 kts 207°
2026-05-07 19:57 40.03351 -3.97028 25851 ft 467 kts 207°
2026-05-07 19:58 40.00367 -3.98653 26522 ft 470 kts 208°
2026-05-07 19:58 39.97327 -4.00308 27228 ft 474 kts 208°
2026-05-07 19:58 39.94292 -4.01957 27907 ft 478 kts 208°
2026-05-07 19:58 39.91174 -4.03651 28645 ft 480 kts 208°
2026-05-07 19:59 39.88116 -4.05309 29407 ft 482 kts 209°
2026-05-07 19:59 39.85006 -4.06993 30306 ft 480 kts 209°
2026-05-07 19:59 39.81944 -4.08648 31352 ft 474 kts 210°
2026-05-07 19:59 39.78966 -4.10253 32533 ft 465 kts 210°
2026-05-07 20:00 39.76019 -4.11840 33538 ft 458 kts 210°
2026-05-07 20:00 39.73101 -4.13413 34317 ft 455 kts 211°
2026-05-07 20:00 39.70163 -4.14997 34804 ft 456 kts 210°
2026-05-07 20:00 39.67239 -4.16574 34905 ft 457 kts 211°
2026-05-07 20:01 39.61396 -4.19714 34918 ft 451 kts 210°
2026-05-07 20:01 39.55578 -4.22838 34920 ft 451 kts 210°
2026-05-07 20:02 39.49819 -4.25925 34925 ft 449 kts 210°
2026-05-07 20:02 39.44003 -4.29038 34924 ft 451 kts 210°
2026-05-07 20:03 39.38251 -4.32109 34920 ft 449 kts 210°
2026-05-07 20:03 39.32462 -4.35196 34918 ft 449 kts 210°
2026-05-07 20:04 39.26695 -4.38265 34918 ft 448 kts 210°
2026-05-07 20:04 39.20949 -4.41319 34916 ft 448 kts 210°
2026-05-07 20:05 39.15155 -4.44392 34917 ft 448 kts 210°
2026-05-07 20:05 39.09404 -4.47437 34921 ft 448 kts 210°
2026-05-07 20:06 39.03614 -4.50496 34916 ft 447 kts 210°
2026-05-07 20:06 38.97879 -4.53522 34909 ft 447 kts 210°
2026-05-07 20:07 38.92608 -4.57441 34911 ft 437 kts 224°
2026-05-07 20:07 38.88234 -4.62723 34910 ft 428 kts 230°
2026-05-07 20:08 38.84015 -4.68115 34928 ft 430 kts 230°
2026-05-07 20:08 38.79769 -4.73513 34923 ft 428 kts 229°
2026-05-07 20:09 38.75532 -4.78881 34920 ft 429 kts 229°
2026-05-07 20:10 38.69155 -4.86936 34914 ft 428 kts 229°
2026-05-07 20:10 38.64923 -4.92267 34907 ft 427 kts 229°
2026-05-07 20:11 38.60693 -4.97585 34908 ft 427 kts 229°
2026-05-07 20:11 38.56453 -5.02907 34906 ft 428 kts 229°
2026-05-07 20:12 38.52182 -5.08148 34907 ft 430 kts 224°
2026-05-07 20:12 38.47131 -5.12261 34910 ft 436 kts 212°
2026-05-07 20:13 38.41611 -5.15704 34912 ft 439 kts 212°
2026-05-07 20:13 38.36116 -5.19114 34915 ft 440 kts 212°
2026-05-07 20:14 38.30654 -5.22498 34912 ft 438 kts 212°
2026-05-07 20:14 38.25137 -5.25913 34914 ft 440 kts 212°
2026-05-07 20:15 38.19672 -5.29289 34912 ft 438 kts 212°
2026-05-07 20:15 38.14164 -5.32687 34915 ft 440 kts 211°
2026-05-07 20:16 38.08688 -5.36059 34909 ft 439 kts 211°
2026-05-07 20:16 38.05947 -5.37744 35045 ft 437 kts 211°
2026-05-07 20:16 38.03196 -5.39435 34818 ft 438 kts 211°
2026-05-07 20:17 37.97726 -5.42793 34918 ft 440 kts 211°
2026-05-07 20:17 37.92274 -5.46133 34914 ft 438 kts 211°
2026-05-07 20:17 37.89517 -5.47820 35039 ft 437 kts 211°
2026-05-07 20:18 37.86775 -5.49497 34908 ft 436 kts 211°
2026-05-07 20:18 37.81333 -5.52821 34916 ft 438 kts 211°
2026-05-07 20:19 37.75873 -5.56149 34920 ft 436 kts 211°
2026-05-07 20:19 37.70390 -5.59487 34915 ft 434 kts 211°
2026-05-07 20:20 37.64954 -5.62791 34914 ft 437 kts 211°
2026-05-07 20:20 37.59503 -5.66098 34934 ft 436 kts 211°
2026-05-07 20:21 37.54001 -5.69432 34935 ft 436 kts 210°
2026-05-07 20:21 37.48537 -5.72735 34935 ft 436 kts 210°
2026-05-07 20:22 37.42984 -5.75782 34932 ft 438 kts 202°
2026-05-07 20:22 37.36921 -5.77287 34939 ft 448 kts 194°
2026-05-07 20:23 37.30745 -5.78411 34930 ft 448 kts 194°
2026-05-07 20:23 37.24508 -5.79547 34932 ft 460 kts 194°
2026-05-07 20:24 37.18016 -5.80727 34937 ft 475 kts 194°
2026-05-07 20:24 37.11486 -5.81905 34930 ft 475 kts 194°
2026-05-07 20:25 37.04919 -5.83089 34934 ft 473 kts 194°
2026-05-07 20:25 36.98367 -5.84270 34934 ft 474 kts 194°
2026-05-07 20:26 36.91809 -5.85450 34932 ft 475 kts 194°
2026-05-07 20:26 36.85284 -5.86622 34939 ft 473 kts 193°
2026-05-07 20:27 36.78739 -5.87797 34939 ft 476 kts 193°
2026-05-07 20:27 36.72210 -5.88965 34940 ft 473 kts 194°
2026-05-07 20:28 36.65673 -5.90135 34939 ft 475 kts 194°
2026-05-07 20:28 36.59097 -5.91308 34936 ft 475 kts 193°
2026-05-07 20:29 36.52541 -5.92476 34935 ft 473 kts 194°
2026-05-07 20:29 36.46032 -5.93634 34939 ft 474 kts 193°
2026-05-07 20:30 36.39501 -5.94794 34938 ft 473 kts 193°
2026-05-07 20:30 36.32954 -5.95955 34952 ft 475 kts 193°
2026-05-07 20:31 36.26382 -5.97116 34944 ft 472 kts 193°
2026-05-07 20:31 36.19784 -5.97351 34935 ft 480 kts 184°
2026-05-07 20:32 36.13063 -5.96997 34932 ft 482 kts 183°
2026-05-07 20:32 36.06374 -5.96644 34950 ft 484 kts 183°
2026-05-07 20:33 35.99614 -5.96289 34946 ft 481 kts 183°
2026-05-07 20:33 35.92981 -5.96386 34950 ft 476 kts 193°
2026-05-07 20:34 35.86486 -5.97962 34961 ft 472 kts 197°
2026-05-07 20:34 35.80076 -5.99638 34950 ft 471 kts 197°
2026-05-07 20:35 35.73648 -6.01318 34957 ft 472 kts 197°
2026-05-07 20:35 35.67198 -6.03000 34951 ft 471 kts 197°
2026-05-07 20:36 35.60813 -6.04663 34953 ft 470 kts 197°
2026-05-07 20:36 35.54386 -6.06333 34951 ft 470 kts 197°
2026-05-07 20:37 35.47989 -6.07994 34950 ft 471 kts 197°
2026-05-07 20:37 35.41599 -6.09650 34949 ft 470 kts 197°
2026-05-07 20:38 35.35239 -6.11295 34944 ft 471 kts 197°
2026-05-07 20:38 35.28776 -6.12965 34947 ft 472 kts 197°
2026-05-07 20:39 35.22351 -6.14621 34944 ft 471 kts 197°
2026-05-07 20:39 35.15966 -6.16265 34946 ft 471 kts 197°
2026-05-07 20:40 35.09506 -6.17926 34945 ft 471 kts 197°
2026-05-07 20:40 35.03098 -6.19570 34944 ft 469 kts 197°
2026-05-07 20:41 34.96697 -6.21210 34949 ft 471 kts 197°
2026-05-07 20:41 34.90297 -6.22847 34941 ft 470 kts 197°
2026-05-07 20:42 34.83876 -6.24487 34945 ft 471 kts 197°
2026-05-07 20:42 34.77457 -6.26124 34951 ft 471 kts 198°
2026-05-07 20:43 34.71025 -6.27762 34948 ft 471 kts 197°
2026-05-07 20:43 34.64631 -6.29385 34947 ft 463 kts 197°
2026-05-07 20:43 34.61508 -6.30174 34945 ft 450 kts 197°
2026-05-07 20:44 34.58473 -6.30942 34943 ft 441 kts 198°
2026-05-07 20:44 34.52495 -6.32461 34699 ft 437 kts 198°
2026-05-07 20:44 34.49484 -6.33228 34176 ft 442 kts 198°
2026-05-07 20:45 34.46490 -6.34149 33547 ft 446 kts 202°
2026-05-07 20:45 34.43485 -6.35243 33076 ft 449 kts 202°
2026-05-07 20:45 34.40505 -6.36324 32818 ft 446 kts 202°
2026-05-07 20:45 34.37553 -6.37384 32162 ft 445 kts 202°
2026-05-07 20:46 34.34560 -6.38454 31332 ft 445 kts 201°
2026-05-07 20:46 34.31612 -6.39501 30602 ft 444 kts 201°
2026-05-07 20:46 34.28651 -6.40547 30180 ft 436 kts 201°
2026-05-07 20:46 34.25766 -6.41563 29769 ft 429 kts 201°
2026-05-07 20:47 34.22934 -6.42558 29333 ft 424 kts 201°
2026-05-07 20:47 34.20013 -6.43588 28879 ft 438 kts 201°
2026-05-07 20:47 34.17080 -6.44618 28382 ft 440 kts 201°
2026-05-07 20:47 34.14126 -6.45651 27881 ft 436 kts 201°
2026-05-07 20:48 34.11257 -6.46653 27395 ft 432 kts 201°
2026-05-07 20:48 34.08399 -6.47649 26899 ft 427 kts 201°
2026-05-07 20:48 34.05528 -6.48651 26405 ft 423 kts 201°
2026-05-07 20:48 34.02710 -6.49632 25910 ft 420 kts 201°
2026-05-07 20:49 33.99953 -6.50683 25404 ft 413 kts 205°
2026-05-07 20:49 33.97375 -6.52164 24900 ft 405 kts 213°
2026-05-07 20:49 33.95087 -6.54035 24413 ft 399 kts 221°
2026-05-07 20:49 33.93031 -6.56269 23934 ft 395 kts 225°
2026-05-07 20:50 33.91077 -6.58562 23452 ft 392 kts 226°
2026-05-07 20:50 33.89131 -6.60849 22971 ft 387 kts 225°
2026-05-07 20:50 33.87211 -6.63103 22500 ft 384 kts 225°
2026-05-07 20:50 33.85301 -6.65343 22019 ft 383 kts 225°
2026-05-07 20:51 33.83414 -6.67553 21763 ft 372 kts 225°
2026-05-07 20:51 33.81588 -6.69689 21717 ft 357 kts 225°
2026-05-07 20:51 33.79872 -6.71697 21688 ft 342 kts 225°
2026-05-07 20:51 33.78180 -6.73674 21530 ft 330 kts 225°
2026-05-07 20:52 33.76557 -6.75571 21248 ft 322 kts 225°
2026-05-07 20:52 33.74964 -6.77431 20358 ft 325 kts 225°
2026-05-07 20:52 33.73370 -6.79291 19873 ft 315 kts 225°
2026-05-07 20:52 33.71829 -6.81087 19608 ft 301 kts 225°
2026-05-07 20:53 33.70369 -6.82787 19590 ft 287 kts 225°
2026-05-07 20:53 33.68977 -6.84409 19569 ft 272 kts 225°
2026-05-07 20:53 33.67651 -6.85953 19551 ft 257 kts 225°
2026-05-07 20:53 33.66394 -6.87365 19550 ft 240 kts 221°
2026-05-07 20:54 33.65118 -6.88532 19339 ft 228 kts 216°
2026-05-07 20:54 33.63764 -6.89515 18856 ft 227 kts 211°
2026-05-07 20:54 33.62333 -6.90316 18335 ft 229 kts 206°
2026-05-07 20:54 33.60822 -6.90945 17833 ft 230 kts 202°
2026-05-07 20:55 33.59308 -6.91518 17359 ft 229 kts 202°
2026-05-07 20:55 33.57782 -6.92113 16888 ft 227 kts 202°
2026-05-07 20:55 33.56309 -6.92694 16459 ft 224 kts 202°
2026-05-07 20:55 33.54833 -6.93279 16030 ft 220 kts 201°
2026-05-07 20:56 33.53375 -6.93856 15558 ft 220 kts 201°
2026-05-07 20:56 33.51944 -6.94421 15147 ft 216 kts 200°
2026-05-07 20:56 33.50532 -6.94980 14717 ft 215 kts 200°
2026-05-07 20:56 33.49099 -6.95547 14239 ft 214 kts 199°
2026-05-07 20:57 33.47697 -6.96100 13799 ft 212 kts 199°
2026-05-07 20:57 33.46313 -6.96646 13368 ft 211 kts 199°
2026-05-07 20:57 33.44912 -6.97199 12911 ft 210 kts 199°
2026-05-07 20:57 33.43527 -6.97745 12500 ft 210 kts 199°
2026-05-07 20:58 33.42119 -6.98300 12103 ft 213 kts 199°
2026-05-07 20:58 33.40719 -6.98852 11758 ft 212 kts 200°
2026-05-07 20:58 33.39317 -6.99405 11447 ft 210 kts 200°
2026-05-07 20:58 33.37936 -6.99949 11155 ft 211 kts 200°
2026-05-07 20:59 33.36530 -7.00503 10905 ft 212 kts 200°
2026-05-07 20:59 33.35125 -7.01056 10843 ft 211 kts 200°
2026-05-07 20:59 33.33723 -7.01609 10775 ft 212 kts 200°
2026-05-07 20:59 33.32317 -7.02162 10695 ft 212 kts 200°
2026-05-07 21:00 33.30900 -7.02719 10606 ft 212 kts 200°
2026-05-07 21:00 33.29503 -7.03269 10514 ft 211 kts 200°
2026-05-07 21:00 33.28114 -7.03815 10417 ft 211 kts 200°
2026-05-07 21:00 33.26701 -7.04370 10380 ft 211 kts 200°
2026-05-07 21:01 33.25312 -7.04916 10375 ft 211 kts 200°
2026-05-07 21:01 33.23911 -7.05466 10369 ft 211 kts 200°
2026-05-07 21:01 33.22487 -7.06026 10317 ft 223 kts 200°
2026-05-07 21:01 33.20923 -7.06643 10261 ft 252 kts 201°
2026-05-07 21:02 33.19348 -7.07627 10127 ft 257 kts 221°
2026-05-07 21:02 33.18231 -7.09293 9962 ft 260 kts 243°
2026-05-07 21:02 33.17695 -7.11362 9624 ft 263 kts 256°
2026-05-07 21:02 33.17368 -7.13485 9282 ft 263 kts 257°
2026-05-07 21:03 33.17048 -7.15623 8953 ft 261 kts 257°
2026-05-07 21:03 33.16720 -7.17761 8635 ft 259 kts 257°
2026-05-07 21:03 33.16396 -7.19851 8333 ft 257 kts 257°
2026-05-07 21:03 33.16072 -7.21935 8025 ft 255 kts 257°
2026-05-07 21:04 33.15749 -7.24006 7717 ft 254 kts 257°
2026-05-07 21:04 33.15426 -7.26072 7429 ft 252 kts 257°
2026-05-07 21:04 33.15107 -7.28114 7131 ft 251 kts 257°
2026-05-07 21:04 33.14786 -7.30169 6826 ft 249 kts 257°
2026-05-07 21:05 33.14470 -7.32186 6526 ft 248 kts 257°
2026-05-07 21:05 33.14152 -7.34215 6244 ft 246 kts 257°
2026-05-07 21:05 33.13838 -7.36210 5949 ft 245 kts 258°
2026-05-07 21:05 33.13526 -7.38192 5657 ft 244 kts 258°
2026-05-07 21:06 33.13215 -7.40177 5375 ft 243 kts 259°
2026-05-07 21:06 33.12901 -7.42168 5089 ft 242 kts 259°
2026-05-07 21:06 33.12597 -7.44098 4836 ft 238 kts 260°
2026-05-07 21:06 33.12295 -7.46009 4734 ft 227 kts 261°
2026-05-07 21:07 33.12031 -7.47833 4556 ft 220 kts 269°
2026-05-07 21:07 33.12326 -7.49556 4318 ft 212 kts 300°
2026-05-07 21:07 33.13309 -7.50815 4073 ft 206 kts 329°
2026-05-07 21:07 33.14585 -7.51546 4007 ft 203 kts 338°
2026-05-07 21:08 33.15913 -7.52114 3999 ft 203 kts 343°
2026-05-07 21:08 33.17282 -7.52598 3997 ft 202 kts 345°
2026-05-07 21:08 33.18629 -7.53054 3968 ft 202 kts 345°
2026-05-07 21:08 33.19989 -7.53511 3702 ft 201 kts 345°
2026-05-07 21:09 33.21332 -7.53964 3445 ft 200 kts 345°
2026-05-07 21:09 33.22671 -7.54418 3184 ft 198 kts 346°
2026-05-07 21:09 33.23991 -7.54867 2930 ft 197 kts 346°
2026-05-07 21:09 33.25280 -7.55306 2677 ft 187 kts 345°
2026-05-07 21:10 33.26511 -7.55726 2440 ft 177 kts 346°
2026-05-07 21:10 33.27656 -7.56116 2215 ft 165 kts 346°
2026-05-07 21:10 33.28723 -7.56479 1996 ft 154 kts 346°
2026-05-07 21:10 33.29719 -7.56817 1809 ft 143 kts 346°
2026-05-07 21:11 33.30671 -7.57143 1612 ft 142 kts 346°
2026-05-07 21:11 33.31628 -7.57468 1413 ft 143 kts 346°
2026-05-07 21:11 33.33532 -7.58122 1017 ft 142 kts 346°
2026-05-07 21:12 33.34497 -7.58450 830 ft 142 kts 346°
2026-05-07 21:12 33.35454 -7.58772 665 ft 139 kts 346°
2026-05-07 21:12 33.36267 -7.59045 658 ft 104 kts 345°
2026-05-07 21:12 33.36867 -7.59253 655 ft 65 kts 344°
2026-05-07 21:13 33.37143 -7.59321 654 ft 28 kts
2026-05-07 21:13 33.37308 -7.59295 654 ft 20 kts 13°
2026-05-07 21:13 33.37418 -7.59262 654 ft 12 kts 14°
2026-05-07 21:13 33.37481 -7.59243 654 ft 8 kts 14°
2026-05-07 21:14 33.37566 -7.59219 654 ft 16 kts 14°
2026-05-07 21:14 33.37698 -7.59180 654 ft 22 kts 13°
2026-05-07 21:14 33.37799 -7.59126 651 ft 14 kts 53°
2026-05-07 21:14 33.37836 -7.59020 651 ft 13 kts 71°
2026-05-07 21:15 33.37857 -7.58934 651 ft 10 kts 75°
2026-05-07 21:15 33.37872 -7.58856 651 ft 9 kts 90°
2026-05-07 21:15 33.37834 -7.58801 651 ft 10 kts 158°
2026-05-07 21:15 33.37739 -7.58766 651 ft 17 kts 163°
2026-05-07 21:16 33.37596 -7.58718 651 ft 24 kts 165°
2026-05-07 21:16 33.37416 -7.58656 653 ft 29 kts 164°
2026-05-07 21:16 33.37217 -7.58587 652 ft 29 kts 165°
2026-05-07 21:16 33.37025 -7.58522 651 ft 27 kts 164°
2026-05-07 21:17 33.36928 -7.58490 651 ft 7 kts 164°
2026-05-07 21:17 33.36903 -7.58448 651 ft 7 kts 94°
2026-05-07 21:17 33.36916 -7.58372 651 ft 13 kts 74°
2026-05-07 21:17 33.36946 -7.58243 652 ft 15 kts 81°
2026-05-07 21:18 33.36883 -7.58176 652 ft 13 kts 162°
2026-05-07 21:18 33.36797 -7.58147 652 ft 11 kts 164°
2026-05-07 21:18 33.36726 -7.58122 654 ft 10 kts 164°
2026-05-07 21:18 33.36652 -7.58096 656 ft 10 kts 164°
2026-05-07 21:19 33.36586 -7.58074 656 ft 6 kts 164°
2026-05-07 21:19 33.36569 -7.58062 657 ft 4 kts 131°
2026-05-07 21:19 33.36567 -7.58044 657 ft 2 kts 84°
2026-05-07 21:19 33.36572 -7.58009 658 ft 4 kts 76°
2026-05-07 21:20 33.36581 -7.57967 658 ft 0 kts 75°